Location: ???????
(55.4231°N, 38.5570°E)
Time: 14:27:58
(UTC+00:00)

USA 129 - Pass Details

Date: 05 August 2024
Orbit: 241 x 674 km, 97.5° (Epoch: 24 April)

Event Time Altitude Azimuth Distance (km) Brightness Sun altitude
Rises 00:00:26 0° 14° (NNE) 1,955 7.6 -11.2°
Reaches altitude 10° 00:02:20 10° 14° (NNE) 1,195 6.3 -11.0°
Maximum altitude 00:05:08 85° 291° (WNW) 303 2.0 -10.8°
Enters shadow 00:06:43 20° 199° (SSW) 704 3.3 -10.6°
